Flag for Cuba Weather past 2 weeks in Santiago de Cuba, Cuba

Now
77 °F

Passing clouds.


Feels Like: 79 °F
Forecast: 73 / 88 °F
Wind: 7 mph from Northeast

Location: Santiago De Cuba - Oriente

Current Time: Aug 3, 2015 at 1:01:49 AM

Latest Report: Aug 2, 2015 at 11:50 PM


Visibility: 6 mi

Pressure: 29.98 "Hg

Humidity: 65%

Dew point: 64 °F

Location of Santiago de CubaLocation

Historic Weather in Santiago de Cuba — Graph

°F

Santiago de Cuba temperature yesterday

Maximum temperature yesterday: 90 °F (at 9:50 AM)
Minimum temperature yesterday: 75 °F (at 5:51 AM)
Average temperature yesterday: 82 °F

Past Weeks' High & Low Weather Summary

 TemperatureHumidityPressure
High90 °F (Jul 23, 12:51 PM)100% (Jul 19, 3:50 AM)30.12 "Hg (Jul 19, 3:50 AM)
Low73 °F (Jul 20, 6:52 AM)43% (Aug 2, 3:50 PM)29.92 "Hg (Jul 26, 4:52 PM)
Average83 °F68%30.01 "Hg
* Reported Jul 18 11:50 PM — Aug 2 11:50 PM, Santiago de Cuba, Weather by CustomWeather, © 2015

Note: Actual official high and low records may vary slightly from our data, if they occured in-between our weather recording intervals... More about our weather records

Advertising

Santiago de Cuba weather history for previous 24 hours

 ConditionsComfort  
Time TempWeatherWind HumidityBarometerVisibility
11:50 PM
Sun, Aug 2
77 °FPassing clouds.7 mph65%29.98 "Hg6 mi
10:50 PM77 °FPassing clouds.8 mph61%29.98 "Hg6 mi
9:51 PM77 °FPassing clouds.7 mph61%29.98 "Hg6 mi
8:51 PM77 °FPassing clouds.8 mph61%29.98 "Hg6 mi
7:50 PM79 °FPartly sunny.6 mph61%29.95 "Hg6 mi
6:50 PM81 °FScattered clouds.7 mph54%29.95 "Hg6 mi
5:52 PM81 °FLight rain. Partly sunny.7 mph54%N/A6 mi
4:50 PM82 °FBroken clouds.8 mph45%29.95 "Hg6 mi
3:50 PM84 °FScattered clouds.8 mph43%29.98 "Hg6 mi
2:50 PM88 °FScattered showers. Scattered clouds.12 mph62%29.95 "Hg6 mi
1:50 PM88 °FScattered clouds.10 mph59%29.98 "Hg6 mi
12:50 PM90 °FScattered clouds.13 mph55%29.98 "Hg6 mi
11:52 AM90 °FScattered clouds.10 mph52%29.98 "Hg6 mi
10:51 AM90 °FScattered clouds.7 mph52%29.98 "Hg6 mi
9:50 AM90 °FPassing clouds.9 mph46%29.98 "Hg6 mi
8:50 AM86 °FPassing clouds.7 mph59%29.95 "Hg6 mi
7:50 AM81 °FPassing clouds.8 mph70%29.95 "Hg6 mi
6:50 AM75 °FPassing clouds.7 mph83%29.95 "HgN/A
5:51 AM75 °FPassing clouds.6 mph83%29.95 "Hg6 mi
4:51 AM77 °FPassing clouds.5 mph79%29.95 "Hg6 mi
3:51 AM77 °FPassing clouds.5 mph79%29.95 "Hg6 mi
2:51 AM79 °FPassing clouds.5 mph70%29.98 "Hg6 mi
1:51 AM79 °FPassing clouds.3 mph70%29.98 "Hg6 mi
Weather by CustomWeather, © 2015

See weather overviewHow to use our weather pages